Date String (YYYY-MM-DD hh:mm:ss) UTC,Instrument flags,Ambient pressure (hPa),Sample flow (lpm),Bypass flow (lpm),Sample temperature (°C),Ambient temperature (°C),ASC tube jacket temperature (°C),LED temperature (°C),Box temperature (°C),Sample RH (%),Span deviation,Mass concentration (μg/m³),Mass concentration (μg/m³),Mass concentration (μg/m³)
DateTimeUTC,F1_M11,P_M11,Q1_M11,Q2_M11,T1_M11,T2_M11,T3_M11,T4_M11,T5_M11,U1_M11,ZSPAN_M11,X0_M11,X2_M11,X1_M11
2021-12-18 15:00:00,,0830.7,4.99,0.00,22.6,23.2,00.0,31.5,24.4,09.0,0000.0,0011.39,0005.18,0004.53
2021-12-18 15:01:00,,0830.7,5.00,0.00,22.6,23.1,00.0,31.5,24.5,08.9,0000.0,0011.41,0005.14,0004.53
2021-12-18 15:02:00,,0830.7,5.00,0.00,22.6,22.9,00.0,31.6,24.4,08.9,0000.0,0011.36,0005.13,0004.53
2021-12-18 15:03:00,,0830.7,5.01,0.00,22.6,22.6,00.0,31.6,24.3,09.0,0000.0,0011.18,0005.19,0004.54
2021-12-18 15:04:00,,0830.7,5.00,0.00,22.6,22.4,00.0,31.6,24.2,09.0,0000.0,0011.14,0005.20,0004.56
2021-12-18 15:05:00,,0830.8,4.99,0.00,22.6,22.2,00.0,31.5,24.2,09.1,0000.0,0011.13,0005.19,0004.56
2021-12-18 15:06:00,,0830.8,5.00,0.00,22.6,22.1,00.0,31.5,24.1,09.1,0000.0,0010.56,0005.19,0004.57
2021-12-18 15:07:00,,0830.8,5.01,0.00,22.5,22.0,00.0,31.5,24.1,09.1,0000.0,0010.73,0005.17,0004.58
2021-12-18 15:08:00,,0830.8,4.98,0.00,22.5,21.9,00.0,31.5,24.1,09.2,0000.0,0011.16,0005.21,0004.58
2021-12-18 15:09:00,,0830.8,5.01,0.00,22.5,21.8,00.0,31.5,24.0,09.2,0000.0,0011.45,0005.21,0004.59
2021-12-18 15:10:00,,0830.8,4.99,0.00,22.5,21.7,00.0,31.5,24.0,09.2,0000.0,0012.22,0005.23,0004.59
2021-12-18 15:11:00,,0830.7,5.01,0.00,22.4,21.9,00.0,31.5,24.0,09.2,0000.0,0012.13,0005.21,0004.60
2021-12-18 15:12:00,,0830.8,4.99,0.00,22.6,22.8,00.0,31.5,24.3,09.2,0000.0,0012.79,0005.21,0004.61
2021-12-18 15:13:00,,0830.8,4.99,0.00,22.7,23.5,00.0,31.6,24.6,09.1,0000.0,0013.07,0005.22,0004.63
2021-12-18 15:14:00,,0830.9,5.01,0.00,22.8,23.3,00.0,31.6,24.7,09.1,0000.0,0013.00,0005.22,0004.65
2021-12-18 15:15:00,,0830.9,5.01,0.00,22.8,23.1,00.0,31.6,24.6,09.1,0000.0,0013.16,0005.27,0004.67
2021-12-18 15:16:00,,0830.9,4.99,0.00,22.8,22.9,00.0,31.6,24.5,09.1,0000.0,0013.11,0005.26,0004.69
2021-12-18 15:17:00,,0830.9,5.00,0.00,22.8,22.7,00.0,31.6,24.5,09.1,0000.0,0012.71,0005.24,0004.71
2021-12-18 15:18:00,,0830.9,5.00,0.00,22.8,22.5,00.0,31.6,24.4,09.1,0000.0,0012.44,0005.30,0004.73
2021-12-18 15:19:00,,0830.9,5.00,0.00,22.7,22.4,00.0,31.6,24.4,09.1,0000.0,0012.19,0005.31,0004.76
2021-12-18 15:20:00,,0830.9,5.00,0.00,22.7,22.2,00.0,31.7,24.4,09.1,0000.0,0011.98,0005.34,0004.77
2021-12-18 15:21:00,,0830.9,4.99,0.00,22.7,22.1,00.0,31.7,24.3,09.1,0000.0,0011.24,0005.38,0004.81
2021-12-18 15:22:00,,0830.9,5.01,0.00,22.7,22.1,00.0,31.6,24.3,09.1,0000.0,0011.12,0005.46,0004.84
2021-12-18 15:23:00,,0830.9,5.00,0.00,22.7,22.0,00.0,31.6,24.3,09.1,0000.0,0010.31,0005.48,0004.84
2021-12-18 15:24:00,,0830.9,5.00,0.00,22.7,22.0,00.0,31.6,24.3,09.1,0000.0,0009.62,0005.46,0004.83
2021-12-18 15:25:00,,0830.9,5.00,0.00,22.7,21.9,00.0,31.6,24.3,09.1,0000.0,0009.62,0005.42,0004.82
2021-12-18 15:26:00,,0830.9,5.00,0.00,22.6,21.9,00.0,31.6,24.3,09.2,0000.0,0010.17,0005.37,0004.80
2021-12-18 15:27:00,,0830.9,5.01,0.00,22.6,21.9,00.0,31.6,24.3,09.3,0000.0,0010.72,0005.38,0004.80
2021-12-18 15:28:00,,0830.9,5.00,0.00,22.6,21.8,00.0,31.6,24.3,09.5,0000.0,0010.84,0005.40,0004.79
2021-12-18 15:29:00,,0830.9,5.02,0.00,22.6,22.0,00.0,31.6,24.3,09.6,0000.0,0011.39,0005.39,0004.78
2021-12-18 15:30:00,,0830.9,4.99,0.00,22.7,22.8,00.0,31.6,24.5,09.6,0000.0,0011.68,0005.40,0004.79
2021-12-18 15:31:00,,0830.9,5.00,0.00,22.8,23.6,00.0,31.7,24.8,09.5,0000.0,0011.60,0005.39,0004.79
2021-12-18 15:32:00,,0830.9,4.98,0.00,22.9,23.6,00.0,31.7,24.8,09.4,0000.0,0011.79,0005.36,0004.78
2021-12-18 15:33:00,,0830.9,5.01,0.00,22.9,23.3,00.0,31.7,24.8,09.3,0000.0,0012.20,0005.35,0004.78
2021-12-18 15:34:00,,0830.8,4.99,0.00,22.9,23.1,00.0,31.8,24.7,09.1,0000.0,0012.39,0005.38,0004.80
2021-12-18 15:35:00,,0830.8,5.01,0.00,22.9,22.9,00.0,31.8,24.7,09.0,0000.0,0012.45,0005.42,0004.84
2021-12-18 15:36:00,,0830.8,4.99,0.00,22.9,22.8,00.0,31.8,24.7,09.0,0000.0,0012.61,0005.52,0004.90
2021-12-18 15:37:00,,0830.8,5.01,0.00,22.9,22.6,00.0,31.8,24.6,09.2,0000.0,0012.08,0005.59,0004.96
2021-12-18 15:38:00,,0830.7,4.99,0.00,22.9,22.5,00.0,31.8,24.6,09.1,0000.0,0011.46,0005.64,0005.01
2021-12-18 15:39:00,,0830.8,5.01,0.00,22.9,22.4,00.0,31.8,24.6,09.2,0000.0,0012.09,0005.66,0005.05
2021-12-18 15:40:00,,0830.8,5.00,0.00,22.9,22.4,00.0,31.8,24.6,09.2,0000.0,0012.47,0005.71,0005.10
2021-12-18 15:41:00,,0830.8,5.01,0.00,22.9,22.3,00.0,31.8,24.6,09.3,0000.0,0011.90,0005.73,0005.14
2021-12-18 15:42:00,,0830.8,4.99,0.00,22.9,22.3,00.0,31.8,24.6,09.3,0000.0,0012.09,0005.74,0005.14
2021-12-18 15:43:00,,0830.7,5.00,0.00,22.9,22.2,00.0,31.8,24.6,09.2,0000.0,0012.50,0005.79,0005.15
2021-12-18 15:44:00,,0830.8,5.01,0.00,22.9,22.2,00.0,31.8,24.6,09.2,0000.0,0012.48,0005.75,0005.15
2021-12-18 15:45:00,,0830.8,4.99,0.00,22.9,22.2,00.0,31.8,24.6,09.2,0000.0,0012.72,0005.72,0005.13
2021-12-18 15:46:00,,0830.7,4.98,0.00,22.9,22.1,00.0,31.8,24.6,09.3,0000.0,0012.95,0005.71,0005.12
2021-12-18 15:47:00,,0830.8,5.01,0.00,22.9,22.1,00.0,31.8,24.6,09.2,0000.0,0013.47,0005.70,0005.10
2021-12-18 15:48:00,,0830.8,5.00,0.00,22.9,22.1,00.0,31.8,24.6,09.2,0000.0,0013.47,0005.67,0005.07
2021-12-18 15:49:00,,0830.8,5.00,0.00,22.8,22.1,00.0,31.8,24.6,09.3,0000.0,0014.25,0005.68,0005.05
2021-12-18 15:50:00,,0830.8,4.99,0.00,22.9,22.1,00.0,31.8,24.5,09.4,0000.0,0014.23,0005.70,0005.02
2021-12-18 15:51:00,,0830.7,5.01,0.00,22.9,22.1,00.0,31.8,24.5,09.3,0000.0,0013.29,0005.65,0004.98
2021-12-18 15:52:00,,0830.7,4.99,0.00,22.9,22.1,00.0,31.8,24.6,09.2,0000.0,0013.16,0005.60,0004.93
2021-12-18 15:53:00,,0830.7,5.01,0.00,22.8,22.1,00.0,31.8,24.6,09.1,0000.0,0012.95,0005.56,0004.92
2021-12-18 15:54:00,,0830.6,4.99,0.00,22.8,22.1,00.0,31.8,24.6,09.1,0000.0,0013.21,0005.56,0004.91
2021-12-18 15:55:00,,0830.6,5.01,0.00,22.9,22.1,00.0,31.8,24.6,09.0,0000.0,0012.88,0005.57,0004.90
2021-12-18 15:56:00,,0830.6,4.99,0.00,22.9,22.1,00.0,31.8,24.6,09.1,0000.0,0012.48,0005.61,0004.91
2021-12-18 15:57:00,,0830.6,5.00,0.00,22.9,22.0,00.0,31.8,24.6,09.0,0000.0,0012.10,0005.58,0004.90
2021-12-18 15:58:00,,0830.6,5.00,0.00,22.9,22.0,00.0,31.8,24.6,09.1,0000.0,0011.51,0005.56,0004.89
2021-12-18 15:59:00,,0830.6,5.00,0.00,22.9,22.0,00.0,31.8,24.6,09.2,0000.0,0011.70,0005.56,0004.88
